#timestamp,LO_Frequency,Hit,StdDev 
1584043215.7,286047007.2,N
1584043235.5,286047003.5,N
1584043255.4,286047005.7,N
1584043275.2,286047002.6,N
1584043295.1,286047002.3,N
1584043296.0,286047002.3,N
1584043315.8,286047001.8,N
1584043335.6,286047004.3,N
1584043355.5,286047008.3,Y
1584043375.3,286047005.0,P
1584043395.2,286047003.3,N
1584043415.9,286047002.1,N
1584043435.7,286047001.1,N
1584043455.6,286047002.7,N
1584043475.4,286047005.1,Y
1584043495.3,286046998.3,P
1584043515.1,286047000.1,N
1584043516.0,286047000.1,N
1584043535.8,286047003.4,N
1584043555.7,286046997.4,N
1584043575.5,286047002.7,N
1584043595.4,286046992.6,Y
1584043615.2,286046994.2,P
1584043635.0,286046997.4,N
1584043635.9,286046997.4,N
1584043655.8,286046991.4,Y
1584043675.6,286046994.8,P
1584043695.5,286046998.9,N
1584043715.3,286046999.5,N
1584043735.1,286046991.8,Y
1584043755.9,286046990.0,P
1584043775.7,286046988.2,P
1584043795.5,286046987.0,P
1584043815.4,286046989.0,N
1584043835.2,286046993.6,N
1584043855.1,286046995.5,N
1584043856.0,286046995.5,N
1584043875.8,286046992.9,N
1584043895.6,286046986.9,Y
1584043915.5,286046997.5,P
1584043935.3,286046996.8,N
1584043955.2,286046997.8,N
1584043975.9,286047002.2,N
1584043995.7,286047004.9,N
1584044015.6,286047002.6,N
1584044035.4,286046995.1,N
1584044055.3,286046992.3,N
1584044075.1,286046996.8,N
1584044076.0,286046996.8,N
1584044095.8,286046997.1,N
1584044115.7,286047000.3,N
1584044135.5,286046999.5,N
1584044155.3,286046996.8,N
1584044175.2,286046995.4,N
1584044195.0,286046991.9,N
1584044226.0,286047002.3,E
1584044235.9,286047003.7,N
1584044255.7,286047010.7,P
1584044275.5,286047007.3,N
1584044295.4,286047005.2,N
1584044315.2,286047003.2,N
1584044335.1,286047002.9,N
1584044336.0,286047002.9,N
1584044355.8,286047006.3,N
1584044375.6,286047007.2,N
1584044395.5,286047005.1,N
1584044415.3,286047013.9,Y
1584044435.1,286047006.1,P
1584044455.9,286047008.3,P
1584044475.7,286047013.8,P
1584044495.6,286047006.8,N
1584044515.4,286047003.2,N
1584044535.2,286046999.9,N
1584044555.1,286046991.8,N
1584044556.0,286046991.8,N
1584044575.8,286046988.2,N
1584044595.7,286046986.3,N
1584044615.5,286046991.0,N
1584044635.3,286046990.8,N
1584044655.2,286046996.4,N
1584044675.9,286046997.6,N
1584044695.7,286046998.5,N
1584044715.6,286047000.1,N
1584044735.4,286047007.7,N
1584044755.2,286047011.1,N
1584044775.1,286047014.6,N
1584044776.0,286047014.6,N
1584044795.8,286047018.3,N
1584044815.7,286047022.5,N
1584044835.5,286047024.6,N
1584044855.3,286047022.1,N
1584044875.2,286047027.0,N
1584044895.0,286047035.1,N
1584044895.9,286047035.1,N
1584044915.7,286047038.9,N
1584044935.6,286047037.2,N
1584044955.4,286047035.9,N
1584044975.3,286047031.7,N
1584044995.1,286047038.8,N
1584045015.8,286047041.0,N
1584045035.7,286047036.8,N
1584045055.5,286047036.5,N
1584045075.4,286047037.8,N
1584045095.2,286047027.3,N
1584045115.0,286047026.8,N
1584045115.9,286047026.8,N
1584045135.8,286047030.8,N
1584045155.6,286047029.9,N
1584045175.5,286047029.7,N
1584045195.3,286047029.6,N
1584045215.1,286047023.6,N
1584045235.9,286047014.5,N
1584045255.7,286047011.6,N
1584045275.5,286047009.2,N
1584045295.4,286047010.3,N
1584045315.2,286047011.8,N
1584045335.1,286047012.3,N
1584045336.0,286047012.3,N
1584045355.8,286047013.0,N
1584045375.6,286047018.8,N
1584045395.5,286047018.2,N
1584045415.3,286047020.7,N
1584045435.1,286047021.9,N
1584045455.9,286047023.0,N
1584045475.7,286047023.2,N
1584045495.6,286047021.3,N
1584045515.4,286047020.1,N
1584045535.2,286047017.1,N
1584045555.1,286047008.5,N
1584045556.0,286047008.5,N
1584045575.8,286047013.1,N
1584045595.7,286047012.5,N
1584045615.5,286047015.0,N
1584045635.3,286047012.9,N
1584045655.2,286047002.9,N
1584045675.0,286047000.9,N
1584045675.9,286047000.9,N
1584045695.7,286047004.3,N
1584045715.6,286047000.5,N
1584045735.4,286047001.8,N
1584045755.3,286047009.9,N
1584045775.1,286047008.0,N
1584045795.8,286047009.5,N
1584045815.7,286047013.4,N
1584045835.5,286047007.4,N
1584045855.4,286047001.7,N
1584045875.2,286047012.0,N
1584045895.0,286047013.0,N
1584045895.9,286047013.0,N
1584045915.8,286047007.6,N
1584045935.6,286047003.0,N
1584045955.5,286047010.1,N
1584045975.3,286047008.2,N
1584045995.1,286047009.6,N
1584046015.9,286047004.8,N
1584046035.7,286047006.0,N
1584046055.6,286047007.5,N
1584046075.4,286047001.4,N
1584046095.2,286047000.9,N
1584046115.1,286047000.1,N
1584046116.0,286047000.1,N
1584046135.8,286047003.2,N
1584046155.6,286047001.9,N
1584046175.5,286046998.6,N
1584046195.3,286046996.8,N
1584046215.2,286046995.5,N
1584046235.9,286046990.1,N
1584046255.7,286046994.8,N
1584046275.6,286047008.4,N
1584046295.4,286047012.2,N
1584046315.2,286047003.5,N
1584046335.1,286046999.9,N
1584046336.0,286046999.9,N
1584046355.8,286047004.7,N
1584046375.7,286047002.4,N
1584046395.5,286046998.7,N
1584046415.3,286046996.0,N
1584046435.2,286046990.7,N
1584046455.0,286046995.1,N
1584046455.9,286046995.1,N
1584046475.8,286046998.3,N
1584046495.6,286046999.5,N
1584046515.4,286046993.9,N
1584046535.3,286046992.4,N
1584046555.1,286046996.3,N
1584046575.8,286046997.5,N
1584046595.7,286046998.1,N
1584046615.5,286047001.9,N
1584046635.4,286047001.1,N
1584046655.2,286046994.1,N
1584046675.0,286046993.7,N
1584046675.9,286046993.7,N
1584046695.8,286046990.0,N
1584046715.6,286046988.7,N
1584046735.4,286046989.7,N
1584046755.3,286046990.5,N
1584046775.1,286046991.8,N
1584046795.9,286046995.7,N
